Back to catalog

TOMORROW-S8

AliveWeatherVLEO
NORAD 66308·PAYLOAD·🇺🇸 United States

Launched Nov 2, 2025 from Cape Canaveral Space Force Station

Loading…

Next Passes (next 24 hours)

TLE

FreshSource: Space-Track

Epoch: Sep 14, 2026, 13:37 UTC

1 66308U 25248R   26257.56749313  .00004027  00000-0  18996-3 0  9993
2 66308  45.3996   1.6697 0004246 191.8318 168.2469 15.21172554 48121

Track TOMORROW-S8 in real time with AllMySat

Download on the App Store